Regional Weather Roundup
Issued by NWS Northern Indiana

Home | Current Version | Previous Version | Text Only | Print | Product List | Glossary Off
Versions: 1 2 3 4 5 6 7 8 9 10 11 12 13 14 15 16 17 18 19 20 21 22 23 24 25 26 27 28 29 30 31 32 33 34 35 36 37 38 39 40 41 42 43 44 45 46 47 48 49 50

000
ASUS43 KIWX 311810
RWRIWX

KIWX WEATHER ROUNDUP
NATIONAL WEATHER SERVICE NORTHERN INDIANA
200 PM EDT TUE MAY 31 2016

NOTE: "FAIR" INDICATES FEW OR NO CLOUDS BELOW 12,000 FEET WITH NO
SIGNIFICANT WEATHER AND/OR OBSTRUCTIONS TO VISIBILITY.

* THESE STATIONS ARE NOT UNDER NWS QUALITY CONTROL. THEY ALSO MAY NOT
  REPORT WEATHER SUCH AS PRECIPITATION OR FOG.

INZ001>027-311900-
NORTHERN INDIANA

CITY           SKY/WX    TMP DP  RH WIND       PRES   REMARKS
GARY*          PTSUNNY   84  66  54 E14       29.99F
VALPARAISO     CLOUDY    87  57  35 E12       29.99F
6HR MIN TEMP:  66; 6HR MAX TEMP:  87;

MICHIGAN CITY* CLOUDY    82  59  44 S5        30.01S
LAPORTE*       MOSUNNY   84  54  35 E8        30.01S
6HR MIN TEMP:  70; 6HR MAX TEMP:  85;

KNOX*            N/A     82  37  20 SE10      29.99F
SOUTH BEND     CLOUDY    80  54  40 E8          N/A
6HR MIN TEMP:  66; 6HR MAX TEMP:  82;

ELKHART*       PTSUNNY  N/A N/A N/A E7        30.03R
GOSHEN         SUNNY     83  52  34 VRB3      30.01F
6HR MIN TEMP:  66; 6HR MAX TEMP:  84;

MONTICELLO*    MOSUNNY   86  47  25 S7        29.97S HAZE
6HR MIN TEMP:  67; 6HR MAX TEMP:  88;

LOGANSPORT*    MOSUNNY   86  54  32 CALM      29.99S
ROCHESTER*     SUNNY     88  54  31 S7        30.01S
WARSAW*        SUNNY     84  55  37 E6        30.01S
ANGOLA*          N/A     84  46  26 SE3       30.03S
FORT WAYNE     PTSUNNY   84  56  38 E8        30.02S
6HR MIN TEMP:  66; 6HR MAX TEMP:  84;

HUNTINGTON*    MOSUNNY  N/A N/A N/A S6        30.00S
PERU/GRISSOM   PTSUNNY   85  57  37 S8        29.98F
6HR MIN TEMP:  66; 6HR MAX TEMP:  86;

MARION*        SUNNY     85  55  35 E5        30.00S
6HR MIN TEMP:  -1; 6HR MAX TEMP:  87;


$$
INZ028>050-311900-
CENTRAL INDIANA

CITY           SKY/WX    TMP DP  RH WIND       PRES   REMARKS
LAFAYETTE      PTSUNNY   86  53  32 VRB3      29.96F
6HR MIN TEMP:  63; 6HR MAX TEMP:  87;

KOKOMO*        SUNNY     84  57  39 S7        29.98S
6HR MIN TEMP:  66; 6HR MAX TEMP:  86;

MUNCIE*        SUNNY     88  53  30 SW3       29.99F
6HR MIN TEMP:  69; 6HR MAX TEMP:  88;

INDIANAPOLIS   PTSUNNY   85  58  39 S10       29.98F
6HR MIN TEMP:  68; 6HR MAX TEMP:  86;


$$
MIZ043>046-050>051-056>058-064>065-071>073-077>080-311900-
SOUTHWEST LOWER MICHIGAN

CITY           SKY/WX    TMP DP  RH WIND       PRES   REMARKS
BATTLE CREEK   PTSUNNY   81  47  30 SE8       30.05S
6HR MIN TEMP:  65; 6HR MAX TEMP:  81;

BENTON HARBOR  PTSUNNY   83  49  30 E8        30.01S
6HR MIN TEMP:  67; 6HR MAX TEMP:  84;

COLDWATER*     PTSUNNY   78  45  31 E3        30.04S
6HR MIN TEMP:  64; 6HR MAX TEMP:  80;

HILLSDALE*     MOSUNNY   80  34  19 E8        30.05S HAZE
6HR MIN TEMP:  65; 6HR MAX TEMP:  80;

HOLLAND        MOSUNNY   83  47  28 SE13      30.03S
6HR MIN TEMP:  63; 6HR MAX TEMP:  84;

GRAND RAPIDS   CLOUDY    83  49  30 E10       30.04S
6HR MIN TEMP:  62; 6HR MAX TEMP:  83;

KALAMAZOO      PTSUNNY   83  46  27 VRB5      30.04S
6HR MIN TEMP:  66; 6HR MAX TEMP:  84;

STURGIS*       CLOUDY    80  48  32 SE5       30.02S
6HR MIN TEMP:  66; 6HR MAX TEMP:  81;

THREE RIVERS*  FAIR      81  45  28 E8        30.04R
6HR MIN TEMP:  64; 6HR MAX TEMP:  82;


$$
OHZ001>008-015>018-024>025-311900-
NORTHWEST OHIO

CITY           SKY/WX    TMP DP  RH WIND       PRES   REMARKS
WAUSEON*         N/A     82  81  94 E12G17    30.03S HX  95
DEFIANCE       CLOUDY    83  48  29 E7        30.02F
6HR MIN TEMP:  67; 6HR MAX TEMP:  83;

FINDLAY        MOSUNNY   84  53  34 NE12      30.01F
6HR MIN TEMP:  70; 6HR MAX TEMP:  85;

TOLEDO EXPRESS CLOUDY    80  51  36 E7        30.03S
6HR MIN TEMP:  66; 6HR MAX TEMP:  83;

TOLEDO METCALF CLOUDY    79  53  40 E9        30.04S
6HR MIN TEMP:  68; 6HR MAX TEMP:  82;

LIMA           PTSUNNY   83  52  34 N5        30.01F
6HR MIN TEMP:  67; 6HR MAX TEMP:  84;


$$
AND FOR LAKE MICHIGAN COASTAL AND OPEN LAKE BUOY OBSERVATIONS

STATION/POSITION TEMP    WIND        PRES    VSBY  WAVE
                 AIR SEA DIR/SP/G                  HT/PER
                 (F)     (DEG/KT/KT) (MB)    (MI)  (FT/S)
CALUMET HARBOR    66      50/  7/ 10 1015.2S
MICHIGAN CITY     79      80/  5/  7   N/A
BURNS HARBOR      68      60/  8/ 10 1016.3S
SAINT JOSEPH      84     180/  2/  5 1016.9R
SOUTH LAKE BUOY   57 55   60/  6/  6 1016.1R         0
4 MI NW BRIDGMAN  74 67  130/  6/  6   N/A           0
MICHIGAN CITY     67 63   50/  4/  6   N/A           0

$$
&&



USA.gov is the U.S. government's official web portal to all federal, state and local government web resources and services.